COSMOS 252 DEB *, 5871

Orbit data source: Space-Track

COSMOS 252 DEB *, 5871 is space debris in LEO originally from a launch on Fri, 01 Nov 1968 UTC launched from the Tyuratam Missile And Space Complex (TTMTR). Debris objects in space refer to the collection of defunct objects orbiting the Earth. Examples of debris include non-operational satellites, rocket bodies, and fragments generated from explosions, collisions, or faulty payload assembly.

Loading next visibility...
Identifier
5871, 1968-097DK
Orbit
LEO
Country
Flag of CISCIS
Related business
Manufacturer
Unknown
Mission
Spacecraft
Bus & Motor
Unknown
Mass
Unknown
Launch date (UTC)
1968-11-01 (57 years ago)
Launch vehicle
Unknown
Launch site
Tyuratam Missile And Space Complex (TTMTR)
Object type
Payload
Rocket body
Debris
Shape & HBR
Unknown shape, 0.2 m
Radar Cross Section
Small (<0.1 m²)

Expand to show TLE details & history
Last TLE update: 21 hours ago

TLE from 21 hours ago
0 COSMOS 252 DEB *
1 05871U 68097DK  25288.28847018 -.00000382  00000-0 -10353-3 0  9994
2 05871  62.8158 240.6995 0901380 192.6060 165.0978 13.06247310681584
Epoch: 2025-10-15T06:55Z
TLE epoch observation values (Epoch: 2025-10-15T06:55:23.823Z)
Latitude
Longitude
112.78555°
Altitude
1,906.442 km
Speed
6.628 km/s
True Right ascension
16h 02m 47s
True Declination
0° 00' 00"
Sunlit
Object was in daylight at epoch
Visualization orbit readout
Latitude
Unknown
Longitude
Unknown
Altitude
Unknown
Speed
Unknown
Apparent Right ascension
Unknown
Apparent Declination
Unknown
Sunlit
N/A
Visualization observer readout
Local Sidereal Time
22:17:58
Azimuth
Unknown
Elevation
Unknown
Doppler factor
Unknown
Orbital elements
Apogee altitude
1,923 km
Perigee altitude
550.242 km
Semi-major axis
7,614.758 km
Eccentricity
0.09014
Inclination
62.8158°
RAAN
240.6995°
Arg. of periapsis
192.606°
True anomaly
167.49174°
Mean anomaly
165.0978°
Eccentric anomaly
166.31927°
Mean motion
3.26632 °/min
Orbital period
110.22 mins
BSTAR
-0.00010353
Loading maneuver chart data...
Computing Atmospheric mass density...

Documentation

Showing up to 5 results
|